Juneau, WI

10:21 AM CST on December 14, 2019 (GMT -0600)
Dodge County

Weather History for KUNU - October, 2019

Change the Weather History Date:

Monday, October 14, 2019

  Actual Average Record
Temperature  
Mean Temperature 39 °F -  
Max Temperature 49 °F 58 °F 86 °F (1975)
Min Temperature 29 °F 39 °F 21 °F (1979)
Degree Days  
Heating Degree Days 26    
Moisture  
Dew Point 32 °F    
Average Humidity 70    
Maximum Humidity 98    
Minimum Humidity 49    
Precipitation  
Precipitation 0.00 in - - ()
Sea Level Pressure  
Sea Level Pressure 30.03 in    
Wind  
Wind Speed 3 mph ()    
Max Wind Speed 12 mph    
Max Gust Speed 18 mph    
Visibility 9.9 miles    
Events      
Averages and records for this station are not official NWS values.
T = Trace of Precipitation, MM = Missing Value Source: Averaged Metar Reports

Daily Weather History Graph

Daily Weather History Graph

Search for Another Location

Airport or City:

Astronomy

Oct. 14, 2019 Rise Set
Actual Time 7:07 AM CDT 6:13 PM CDT
Civil Twilight 6:38 AM CDT 6:42 PM CDT
Nautical Twilight 6:05 AM CDT 7:15 PM CDT
Astronomical Twilight 5:32 AM CDT 7:48 PM CDT
Moon 7:03 PM CDT 7:38 AM CDT
Length of Visible Light 12h 03m
Length of Day
11h 06m
Full, 99% of the Moon is Illuminated
Oct 14
Full
Oct 21
Last Quarter
Oct 27
New
Nov 4
First Quarter
Nov 12
Full

Hourly Weather History & Observations

Time (CDT) Temp. Windchill Dew Point Humidity Pressure Visibility Wind Dir Wind Speed Gust Speed Precip Events Conditions
12:15 AM 32.5 °F 28.1 °F 31.1 °F 94% 29.92 in 10.0 mi WSW 4.6 mph - N/A   Scattered Clouds
12:35 AM 32.0 °F - 30.9 °F 96% 29.92 in 10.0 mi Calm Calm - N/A   Clear
7:15 AM 29.1 °F - 28.6 °F 98% 30.01 in 10.0 mi Calm Calm - N/A   Mostly Cloudy
7:35 AM 29.8 °F - 29.3 °F 98% 30.01 in 10.0 mi Calm Calm - N/A   Overcast
7:55 AM 31.6 °F - 31.1 °F 98% 30.02 in 10.0 mi Calm Calm - N/A   Overcast
8:15 AM 32.0 °F - 31.5 °F 98% 30.03 in 10.0 mi Calm Calm - N/A   Mostly Cloudy
8:35 AM 32.5 °F 28.1 °F 31.8 °F 97% 30.04 in 10.0 mi WSW 4.6 mph - N/A   Scattered Clouds
8:55 AM 34.5 °F 31.6 °F 32.4 °F 92% 30.05 in 10.0 mi West 3.5 mph - N/A   Mostly Cloudy
9:15 AM 35.6 °F 30.7 °F 32.7 °F 89% 30.05 in 10.0 mi WSW 5.8 mph - N/A   Overcast
9:35 AM 37.4 °F 34.9 °F 33.8 °F 87% 30.05 in 10.0 mi WSW 3.5 mph - N/A   Overcast
9:55 AM 38.1 °F 34.6 °F 33.3 °F 83% 30.06 in 10.0 mi West 4.6 mph - N/A   Mostly Cloudy
10:15 AM 39.6 °F 36.3 °F 33.8 °F 80% 30.06 in 10.0 mi SW 4.6 mph - N/A   Overcast
10:35 AM 40.1 °F 38.0 °F 34.2 °F 79% 30.06 in 10.0 mi WSW 3.5 mph - N/A   Overcast
10:55 AM 40.8 °F 36.9 °F 33.8 °F 76% 30.06 in 10.0 mi West 5.8 mph - N/A   Overcast
11:15 AM 41.4 °F 36.8 °F 33.4 °F 73% 30.06 in 10.0 mi WSW 6.9 mph - N/A   Overcast
11:35 AM 42.8 °F 40.1 °F 32.9 °F 68% 30.06 in 10.0 mi West 4.6 mph - N/A   Mostly Cloudy
11:55 AM 43.3 °F 39.9 °F 32.2 °F 65% 30.06 in 10.0 mi WSW 5.8 mph - N/A   Scattered Clouds
12:15 PM 45.1 °F 39.5 °F 32.4 °F 61% 30.06 in 7.0 mi WSW 11.5 mph - N/A   Scattered Clouds
12:35 PM 44.8 °F 43.3 °F 31.1 °F 59% 30.06 in 10.0 mi WSW 3.5 mph - N/A   Scattered Clouds
12:55 PM 45.7 °F 41.5 °F 29.8 °F 54% 30.06 in 10.0 mi WSW 8.1 mph - N/A   Scattered Clouds
1:15 PM 46.2 °F 42.7 °F 30.2 °F 54% 30.06 in 10.0 mi West 6.9 mph - N/A   Clear
1:35 PM 46.8 °F - 31.3 °F 55% 30.05 in 10.0 mi SW 8.1 mph 18.4 mph N/A   Clear
1:55 PM 47.3 °F - 31.3 °F 54% 30.04 in 10.0 mi West 8.1 mph - N/A   Clear
2:15 PM 47.7 °F - 30.2 °F 51% 30.04 in 10.0 mi WSW 5.8 mph - N/A   Clear
2:35 PM 48.0 °F - 30.7 °F 51% 30.04 in 10.0 mi SW 8.1 mph - N/A   Clear
2:55 PM 48.6 °F - 31.3 °F 51% 30.03 in 10.0 mi WSW 4.6 mph - N/A   Clear
3:15 PM 48.9 °F - 31.5 °F 51% 30.03 in 10.0 mi WSW 4.6 mph - N/A   Clear
3:35 PM 49.1 °F - 30.6 °F 49% 30.02 in 10.0 mi SW 3.5 mph - N/A   Clear
3:55 PM 49.1 °F - 32.2 °F 52% 30.03 in 10.0 mi WSW 9.2 mph - N/A   Clear
4:15 PM 48.6 °F - 31.3 °F 51% 30.03 in 10.0 mi SW 4.6 mph - N/A   Clear
4:35 PM 48.6 °F - 31.3 °F 51% 30.03 in 10.0 mi SSW 6.9 mph - N/A   Clear
4:55 PM 48.4 °F - 31.8 °F 53% 30.02 in 10.0 mi South 3.5 mph - N/A   Clear
5:15 PM 48.0 °F - 31.5 °F 53% 30.02 in 10.0 mi Calm Calm - N/A   Clear
5:35 PM 47.8 °F - 31.8 °F 54% 30.02 in 10.0 mi Calm Calm - N/A   Clear
5:55 PM 47.1 °F - 31.1 °F 54% 30.02 in 10.0 mi Calm Calm - N/A   Clear
6:15 PM 45.7 °F - 31.6 °F 58% 30.02 in 10.0 mi Calm Calm - N/A   Clear
6:35 PM 43.5 °F - 32.0 °F 64% 30.02 in 10.0 mi Calm Calm - N/A   Clear
6:55 PM 43.9 °F - 32.0 °F 63% 30.03 in 10.0 mi Calm Calm - N/A   Clear
7:15 PM 41.9 °F - 32.5 °F 69% 30.03 in 10.0 mi Calm Calm - N/A   Clear
7:35 PM 41.9 °F - 32.9 °F 70% 30.03 in 10.0 mi Calm Calm - N/A   Clear
7:55 PM 40.1 °F - 33.1 °F 76% 30.02 in 10.0 mi Calm Calm - N/A   Clear
8:15 PM - - - N/A% 30.02 in 10.0 mi Calm Calm - N/A   Clear
8:35 PM 39.4 °F - 32.9 °F 78% 30.03 in 10.0 mi Calm Calm - N/A   Clear
8:55 PM 38.7 °F - 33.3 °F 81% 30.03 in 10.0 mi Calm Calm - N/A   Clear
9:15 PM 39.2 °F - 32.9 °F 78% 30.03 in 10.0 mi Calm Calm - N/A   Clear
9:55 PM - - - N/A% 30.03 in 10.0 mi Calm Calm - N/A   Clear
10:15 PM - - - N/A% 30.03 in 10.0 mi Calm Calm - N/A   Clear